Le nostre stazioni meteo in Italia

Pubblicità
Il mio iltempo24.it
Casale Monferrato, Italia (16068): Temperatura & dewpoint: 17.01.2019 05:00:00 - 23.01.2019 05:00:00 (CET)Casale Monferrato, Italia (16068): velocità del vento: 17.01.2019 05:00:00 - 23.01.2019 05:00:00 (CET)Casale Monferrato, Italia (16068): direzione del vento: 17.01.2019 05:00:00 - 23.01.2019 05:00:00 (CET)Casale Monferrato, Italia (16068): reduced air pressure: 17.01.2019 05:00:00 - 23.01.2019 05:00:00 (CET)Casale Monferrato, Italia (16068): precipitazioni: 17.01.2019 05:00:00 - 23.01.2019 05:00:00 (CET)
Data & Tempo tt [°C] td [°C] ff [km/h] ff [kn] dd ppp [hPa] rr [mm]
23.01.2019 05:00:00 - - - - - - -
23.01.2019 04:00:00 -7,8 -9,5 4 2 OSO 1001,0 -
23.01.2019 03:00:00 -9,3 -11,4 0 0 N 1001,9 -
23.01.2019 02:00:00 -8,7 -10,6 2 1 SSO 1002,3 -
23.01.2019 01:00:00 -7,6 -9,3 2 1 OSO 1002,6 0,0
23.01.2019 00:00:00 -8,4 -10,7 4 2 E 1003,6 -
22.01.2019 23:00:00 -7,3 -9,0 2 1 O 1003,8 -
22.01.2019 22:00:00 -7,5 -9,5 2 1 O 1004,1 -
22.01.2019 21:00:00 -7,0 -9,0 2 1 SSO 1004,6 -
22.01.2019 20:00:00 -6,9 -9,3 4 2 SSE 1004,9 -
22.01.2019 19:00:00 -5,5 -8,3 2 1 S 1005,1 0,0
22.01.2019 18:00:00 -2,1 -6,2 2 1 SSO 1005,4 -
22.01.2019 17:00:00 2,5 -1,9 2 1 SSE 1005,4 -
22.01.2019 16:00:00 5,8 -0,1 8 4 ESE 1005,9 -
22.01.2019 15:00:00 6,7 -0,6 2 1 E 1006,9 -
22.01.2019 14:00:00 5,8 -0,6 4 2 ENE 1008,1 -
22.01.2019 13:00:00 3,6 -0,8 5 3 N 1009,7 0,0
22.01.2019 12:00:00 2,5 -0,8 5 3 N 1010,8 -
22.01.2019 11:00:00 0,8 -0,5 5 3 N 1011,5 -
22.01.2019 10:00:00 -2,3 -3,6 2 1 S 1012,0 -
22.01.2019 09:00:00 -6,1 -7,5 2 1 OSO 1012,5 -
22.01.2019 08:00:00 -5,8 -7,2 2 1 O 1012,7 -
22.01.2019 07:00:00 -6,2 -7,7 2 1 OSO 1012,8 0,0
22.01.2019 06:00:00 -6,1 -7,6 2 1 OSO 1013,3 -
22.01.2019 05:00:00 -6,5 -8,6 0 0 N 1013,9 -
22.01.2019 04:00:00 -4,5 -5,9 4 2 OSO 1014,4 -
22.01.2019 03:00:00 -5,0 -6,7 4 2 ONO 1015,2 -
22.01.2019 02:00:00 -4,7 -6,4 0 0 N 1015,7 -
22.01.2019 01:00:00 -4,2 -6,4 2 1 OSO 1016,3 0,0
22.01.2019 00:00:00 -3,6 -5,5 4 2 O 1016,5 -
21.01.2019 23:00:00 -4,5 -7,6 0 0 N 1016,7 -
21.01.2019 22:00:00 -2,5 -5,2 4 2 OSO 1016,6 -
21.01.2019 21:00:00 -2,0 -5,5 4 2 SSO 1016,5 -
21.01.2019 20:00:00 -1,3 -5,2 5 3 O 1016,6 -
21.01.2019 19:00:00 -0,1 -4,6 5 3 OSO 1016,5 0,0
21.01.2019 18:00:00 2,5 -4,6 4 2 O 1016,4 -
21.01.2019 17:00:00 6,1 -2,1 4 2 E 1016,2 -
21.01.2019 16:00:00 7,1 -1,9 4 2 N 1016,2 -
21.01.2019 15:00:00 6,9 -1,9 5 3 N 1016,6 -
21.01.2019 14:00:00 5,9 -1,4 5 3 N 1017,4 -
21.01.2019 13:00:00 5,7 -0,2 2 1 O 1018,3 0,0
21.01.2019 12:00:00 4,2 0,5 2 1 E 1019,1 -
21.01.2019 11:00:00 1,9 0,6 4 2 SE 1019,5 -
21.01.2019 10:00:00 -1,1 -2,4 0 0 N 1019,3 -
21.01.2019 09:00:00 -5,0 -6,6 2 1 ONO 1019,2 -
21.01.2019 08:00:00 -4,5 -5,9 0 0 N 1018,9 -
21.01.2019 07:00:00 -4,3 -5,7 2 1 OSO 1018,5 0,0
21.01.2019 06:00:00 -4,5 -5,9 4 2 OSO 1018,5 -
21.01.2019 05:00:00 -4,6 -6,2 4 2 O 1018,2 -
21.01.2019 04:00:00 -4,2 -5,6 5 3 O 1018,3 -
21.01.2019 03:00:00 -4,2 -5,9 4 2 OSO 1018,5 -
21.01.2019 02:00:00 -4,0 -5,9 2 1 SSE 1018,4 -
21.01.2019 01:00:00 -3,1 -4,7 2 1 OSO 1018,3 0,0
21.01.2019 00:00:00 -3,3 -5,5 0 0 N 1018,2 -
20.01.2019 23:00:00 -2,9 -5,3 2 1 O 1017,9 -
20.01.2019 22:00:00 -2,0 -4,4 4 2 OSO 1017,3 -
20.01.2019 21:00:00 -1,7 -4,4 4 2 OSO 1017,0 -
20.01.2019 20:00:00 -1,4 -4,8 4 2 OSO 1016,7 -
20.01.2019 19:00:00 -0,2 -4,2 4 2 O 1016,2 -
20.01.2019 18:00:00 1,9 -4,5 2 1 O 1015,6 -
20.01.2019 17:00:00 5,2 -2,3 4 2 E 1015,1 -
20.01.2019 16:00:00 7,0 -1,0 2 1 NNO 1014,8 -
20.01.2019 15:00:00 6,5 -1,7 2 1 N 1014,9 -
20.01.2019 14:00:00 7,2 0,3 4 2 ESE 1015,3 -
20.01.2019 13:00:00 6,1 0,1 4 2 S 1015,9 0,0
20.01.2019 12:00:00 5,1 1,0 2 1 SSO 1016,3 -
20.01.2019 11:00:00 3,2 2,0 2 1 SSO 1016,6 -
20.01.2019 10:00:00 -0,4 -1,6 0 0 N 1016,3 -
20.01.2019 09:00:00 -5,0 -6,6 0 0 N 1016,3 -
20.01.2019 08:00:00 -4,8 -6,2 0 0 N 1015,7 -
20.01.2019 07:00:00 -4,5 -5,9 0 0 N 1015,5 0,0
20.01.2019 06:00:00 -4,7 -6,6 4 2 O 1015,5 -
20.01.2019 05:00:00 -3,5 -5,1 4 2 O 1015,8 -
20.01.2019 04:00:00 -3,6 -5,6 2 1 O 1016,1 -
20.01.2019 03:00:00 -2,7 -4,4 2 1 O 1016,2 -
20.01.2019 02:00:00 -2,2 -4,1 4 2 O 1016,3 -
20.01.2019 01:00:00 -1,7 -3,6 4 2 OSO 1016,7 0,0
20.01.2019 00:00:00 -1,1 -3,0 4 2 OSO 1016,9 -
19.01.2019 23:00:00 0,0 -2,3 4 2 O 1016,7 -
19.01.2019 22:00:00 0,6 -1,5 4 2 OSO 1016,8 -
19.01.2019 21:00:00 0,2 -1,9 4 2 OSO 1016,8 -
19.01.2019 20:00:00 0,0 -3,1 4 2 O 1016,8 -
19.01.2019 19:00:00 1,6 -2,2 4 2 NO 1016,5 0,0
19.01.2019 18:00:00 3,2 -1,8 2 1 NNO 1016,2 -
19.01.2019 17:00:00 4,9 -0,4 8 4 N 1016,0 -
19.01.2019 16:00:00 5,4 -0,1 8 4 N 1016,2 -
19.01.2019 15:00:00 5,7 -0,2 9 5 N 1016,3 -
19.01.2019 14:00:00 5,3 0,6 9 5 N 1016,9 -
19.01.2019 13:00:00 4,8 0,3 9 5 N 1017,9 0,0
19.01.2019 12:00:00 5,0 0,7 11 6 N 1018,4 -
19.01.2019 11:00:00 4,3 1,3 11 6 N 1018,7 -
19.01.2019 10:00:00 3,5 0,7 9 5 N 1018,3 -
19.01.2019 09:00:00 2,9 1,2 8 4 N 1018,1 -
19.01.2019 08:00:00 3,0 1,2 8 4 N 1017,5 -
19.01.2019 07:00:00 3,3 1,6 8 4 N 1017,5 0,0
19.01.2019 06:00:00 3,1 1,6 8 4 N 1017,3 -
19.01.2019 05:00:00 3,6 2,1 11 6 NE 1017,6 -
19.01.2019 04:00:00 3,7 2,2 9 5 N 1017,6 -
19.01.2019 03:00:00 3,7 2,2 9 5 N 1017,7 -
19.01.2019 02:00:00 3,9 2,1 5 3 N 1017,4 -
19.01.2019 01:00:00 4,5 2,7 8 4 NNE 1017,7 0,0
19.01.2019 00:00:00 5,0 3,5 9 5 N 1017,7 -
18.01.2019 23:00:00 4,4 3,0 11 6 N 1017,0 -
18.01.2019 22:00:00 3,9 2,5 11 6 N 1016,7 -
18.01.2019 21:00:00 3,5 2,0 13 7 NNO 1016,4 -
18.01.2019 20:00:00 4,1 1,8 4 2 N 1015,9 -
18.01.2019 19:00:00 4,8 1,1 2 1 OSO 1015,1 0,0
18.01.2019 18:00:00 6,1 0,4 11 6 E 1014,3 -
18.01.2019 17:00:00 9,3 -1,3 8 4 ESE 1013,3 -
18.01.2019 16:00:00 11,0 -3,3 5 3 NE 1012,8 -
18.01.2019 15:00:00 11,2 -3,8 8 4 N 1012,6 -
18.01.2019 14:00:00 10,4 -1,8 9 5 N 1012,4 -
18.01.2019 13:00:00 10,0 -3,8 8 4 NNO 1012,4 0,0
18.01.2019 12:00:00 7,9 6,5 4 2 SE 1012,9 -
18.01.2019 11:00:00 1,9 0,9 2 1 OSO 1013,3 -
18.01.2019 10:00:00 -0,9 -2,1 2 1 ONO 1012,9 -
18.01.2019 09:00:00 -3,9 -5,2 2 1 S 1012,5 -
18.01.2019 08:00:00 -4,8 -6,2 4 2 S 1012,1 -
18.01.2019 07:00:00 -4,1 -5,5 4 2 NE 1011,4 0,0
18.01.2019 06:00:00 -2,1 -3,4 5 3 O 1010,9 -
18.01.2019 05:00:00 -1,0 -2,3 4 2 O 1011,3 -
18.01.2019 04:00:00 -0,8 -2,3 4 2 O 1011,5 -
18.01.2019 03:00:00 0,0 -1,5 4 2 OSO 1011,5 -
18.01.2019 02:00:00 2,7 1,2 2 1 ONO 1011,3 -
18.01.2019 01:00:00 3,7 2,2 2 1 O 1011,5 0,0
18.01.2019 00:00:00 3,8 2,3 2 1 SO 1011,9 -
17.01.2019 23:00:00 4,8 3,4 2 1 ONO 1012,0 -
17.01.2019 22:00:00 4,6 3,2 2 1 O 1012,0 -
17.01.2019 21:00:00 3,6 2,2 4 2 ONO 1012,1 -
17.01.2019 20:00:00 2,5 1,0 4 2 O 1012,4 -
17.01.2019 19:00:00 2,9 0,6 2 1 ONO 1012,3 0,0
17.01.2019 18:00:00 4,6 1,8 2 1 SE 1012,0 -
17.01.2019 17:00:00 6,6 2,2 4 2 ENE 1012,0 -
17.01.2019 16:00:00 8,0 4,0 5 3 ENE 1012,1 -
17.01.2019 15:00:00 8,2 4,5 4 2 NNE 1012,3 -
17.01.2019 14:00:00 8,7 4,7 2 1 SSO 1012,9 -
17.01.2019 13:00:00 8,3 5,0 4 2 S 1014,0 0,0
17.01.2019 12:00:00 6,1 3,7 4 2 ESE 1015,1 -
17.01.2019 11:00:00 5,6 3,6 2 1 N 1015,9 -
17.01.2019 10:00:00 3,5 2,0 2 1 O 1015,8 -
17.01.2019 09:00:00 1,2 -0,3 0 0 N 1015,8 -
17.01.2019 08:00:00 2,5 1,0 5 3 SE 1015,7 -
17.01.2019 07:00:00 2,3 0,8 0 0 N 1015,9 0,0
17.01.2019 06:00:00 2,5 0,8 2 1 OSO 1015,8 -
17.01.2019 05:00:00 2,5 1,0 0 0 N 1016,4 -

tt = Temperatura
td = dewpoint
ff = velocità del vento
dd = direzione del vento
ppp = reduced air pressure
rr = precipitazioni

Stazioni seguenti

WeatherPro
AMSI
MeteoEarth